EW4561 Weather Reports


time (UTC)temp
F
wind
direction
speed
knots
gust
knots
rain 1hr
in
rain 24hr
in
rain mn
in
humidity
%
barometer
mb
20260504141243 63 0 0.0 0.0 0.00 0.00 0.00 85 1014.5
20260504130643 63 0 0.0 0.0 0.00 0.00 0.00 84 1014.4
20260504081843 67 1 0.9 2.6 0.00 0.00 0.00 78 1012.6
20260504081241 67 43 0.9 3.5 0.00 0.00 0.00 78 1012.5
20260504080642 67 59 0.9 3.5 0.00 0.00 0.00 78 1012.5
20260504050643 66 336 1.7 4.3 0.00 0.00 0.00 83 1012.6
20260504045441 66 37 0.9 7.0 0.00 0.00 0.00 84 1012.6
20260504044842 66 354 0.9 4.3 0.00 0.00 0.00 84 1012.5
20260504044242 66 321 1.7 4.3 0.00 0.00 0.00 85 1012.7
20260504043641 66 334 1.7 4.3 0.00 0.00 0.00 85 1012.6
20260504043041 65 329 0.9 4.3 0.00 0.00 0.00 85 1012.8
20260504042442 65 335 0.9 4.3 0.00 0.00 0.00 85 1012.6
20260504041842 65 333 0.9 4.3 0.00 0.00 0.00 85 1012.6
20260504041242 65 326 0.9 4.3 0.00 0.00 0.00 85 1012.6
20260504040642 65 321 0.9 3.5 0.00 0.00 0.00 86 1012.7
20260504040042 65 324 0.9 5.2 0.00 0.00 0.00 86 1012.8
20260504035442 65 323 1.7 5.2 0.00 0.00 0.00 86 1012.9
20260504034241 64 336 0.9 4.3 0.00 0.00 0.00 86 1013.0
20260504033641 64 325 0.9 4.3 0.00 0.00 0.00 86 1013.0
20260504032442 64 316 0.0 4.3 0.00 0.00 0.00 86 1013.2
20260504031842 64 306 0.9 3.5 0.00 0.00 0.00 86 1013.3
20260504031241 63 320 0.9 4.3 0.00 0.00 0.00 86 1013.4
20260504030042 63 53 0.0 3.5 0.00 0.00 0.00 86 1013.8
20260504025442 63 59 0.0 3.5 0.00 0.00 0.00 86 1013.7
20260504024842 63 24 0.9 4.3 0.00 0.00 0.00 86 1013.9
20260504024242 62 39 1.7 4.3 0.00 0.00 0.00 85 1014.0
20260504023642 62 35 1.7 5.2 0.00 0.00 0.00 85 1014.1
20260504023041 62 27 1.7 7.0 0.00 0.00 0.00 85 1014.3
20260504022441 63 49 1.7 7.0 0.00 0.00 0.00 85 1014.3
20260504021842 63 54 0.9 7.0 0.00 0.00 0.00 85 1014.4
20260504021242 63 37 0.9 3.5 0.00 0.00 0.00 85 1014.7
20260504020641 63 51 0.9 4.3 0.00 0.00 0.00 85 1014.8
20260504020042 63 48 0.9 4.3 0.00 0.00 0.00 85 1015.0
20260504015442 63 2 0.0 2.6 0.00 0.00 0.00 85 1015.1
20260504014242 63 84 0.9 4.3 0.00 0.00 0.00 85 1015.3
20260504013641 63 87 0.9 4.3 0.00 0.00 0.00 85 1015.4
20260504013041 63 54 0.0 2.6 0.00 0.00 0.00 85 1015.5
20260504012442 63 51 0.0 2.6 0.00 0.00 0.00 85 1015.7
20260504011242 63 40 0.0 0.9 0.00 0.00 0.00 85 1015.8
20260504010042 63 15 0.0 2.6 0.00 0.00 0.00 85 1016.0
20260504005441 63 0 0.0 0.0 0.00 0.00 0.00 84 1016.1
20260504004841 63 0 0.0 0.0 0.00 0.00 0.00 85 1016.0
20260504004242 63 0 0.0 0.0 0.00 0.00 0.00 85 1015.9
20260504003641 62 0 0.0 0.0 0.00 0.00 0.00 85 1015.8
20260504003043 62 0 0.0 0.0 0.00 0.00 0.00 84 1015.8
20260504001841 62 0 0.0 0.0 0.00 0.00 0.00 84 1015.8
20260504001242 62 0 0.0 0.0 0.00 0.00 0.00 84 1015.8
20260504000041 62 0 0.0 0.0 0.00 0.00 0.00 84 1015.9
20260503234841 62 0 0.0 0.0 0.00 0.00 0.00 84 1015.8
20260503234242 62 0 0.0 0.0 0.00 0.00 0.00 84 1015.7
20260503233641 62 0 0.0 0.0 0.00 0.00 0.00 84 1015.6
20260503233041 62 0 0.0 0.0 0.00 0.00 0.00 84 1015.9
20260503232442 62 335 0.0 0.9 0.00 0.00 0.00 84 1016.0
20260503231242 62 342 1.7 5.2 0.00 0.00 0.00 83 1015.9
20260503230641 62 75 0.9 5.2 0.00 0.00 0.00 83 1015.8
20260503230041 62 112 0.0 5.2 0.00 0.00 0.00 83 1015.8
20260503224842 61 0 0.0 0.0 0.00 0.00 0.00 83 1016.2
20260503224242 61 0 0.0 0.0 0.00 0.00 0.00 83 1016.4
20260503223640 61 0 0.0 0.0 0.00 0.00 0.00 83 1016.3
20260503223041 61 0 0.0 0.0 0.00 0.00 0.00 83 1016.1
20260503222441 61 0 0.0 0.0 0.00 0.00 0.00 83 1015.8
20260503221841 61 0 0.0 0.0 0.00 0.00 0.00 84 1015.6
20260503220641 60 0 0.0 0.0 0.00 0.00 0.00 84 1015.4
20260503220042 60 0 0.0 0.0 0.00 0.00 0.00 83 1015.2
20260503215441 60 0 0.0 0.0 0.00 0.00 0.00 83 1015.1
20260503214840 60 0 0.0 0.0 0.00 0.00 0.00 83 1015.1
20260503214241 60 0 0.0 0.0 0.00 0.00 0.00 83 1015.1
20260503213042 60 0 0.0 0.0 0.00 0.00 0.00 83 1015.1
20260503212441 60 0 0.0 0.0 0.00 0.00 0.00 83 1015.0
20260503211842 60 0 0.0 0.0 0.00 0.00 0.00 83 1015.1
20260503210041 59 0 0.0 0.0 0.00 0.00 0.00 83 1014.8
20260503205441 59 0 0.0 0.0 0.00 0.00 0.00 83 1014.7
20260503204841 59 0 0.0 0.0 0.00 0.00 0.00 83 1014.7
20260503204242 59 0 0.0 0.0 0.00 0.00 0.00 83 1014.6
20260503203641 59 0 0.0 0.0 0.00 0.00 0.00 83 1014.5
20260503203040 59 0 0.0 0.0 0.00 0.00 0.00 83 1014.5
20260503202440 59 0 0.0 0.0 0.00 0.00 0.00 83 1014.4
20260503201841 59 0 0.0 0.0 0.00 0.00 0.00 83 1014.4
20260503201242 59 0 0.0 0.0 0.00 0.00 0.00 83 1014.3
20260503200641 59 0 0.0 0.0 0.00 0.00 0.00 83 1014.3
20260503195442 59 0 0.0 0.0 0.00 0.00 0.00 83 1014.2
20260503194841 59 0 0.0 0.0 0.00 0.00 0.00 83 1014.2
20260503194241 59 0 0.0 0.0 0.00 0.00 0.00 83 1014.3
20260503193641 59 0 0.0 0.0 0.00 0.00 0.00 83 1014.2
20260503193040 59 0 0.0 0.0 0.00 0.00 0.00 83 1014.2
20260503192441 59 0 0.0 0.0 0.00 0.00 0.00 83 1014.1
20260503191842 59 0 0.0 0.0 0.00 0.00 0.00 83 1014.1
20260503191241 59 0 0.0 0.0 0.00 0.00 0.00 83 1014.1
20260503190041 59 0 0.0 0.0 0.00 0.00 0.00 83 1014.1
20260503185442 59 0 0.0 0.0 0.00 0.00 0.00 83 1014.1
20260503184841 59 0 0.0 0.0 0.00 0.00 0.00 83 1014.1
20260503184241 59 0 0.0 0.0 0.00 0.00 0.00 83 1014.1
20260503183641 59 0 0.0 0.0 0.00 0.00 0.00 82 1014.1
20260503183041 59 0 0.0 0.0 0.00 0.00 0.00 82 1014.2
20260503182442 58 0 0.0 0.0 0.00 0.00 0.00 82 1014.1
20260503181842 58 0 0.0 0.0 0.00 0.00 0.00 82 1014.1
20260503181241 58 0 0.0 0.0 0.00 0.00 0.00 82 1014.0
20260503180642 58 0 0.0 0.0 0.00 0.00 0.00 82 1014.1
20260503175441 58 0 0.0 0.0 0.00 0.00 0.00 82 1014.2
20260503174841 58 0 0.0 0.0 0.00 0.00 0.00 82 1014.2
20260503174241 58 0 0.0 0.0 0.00 0.00 0.00 82 1014.1
20260503173641 58 0 0.0 0.0 0.00 0.00 0.00 82 1014.1
20260503173042 58 0 0.0 0.0 0.00 0.00 0.00 82 1014.1
20260503172441 58 0 0.0 0.0 0.00 0.00 0.00 82 1014.2
20260503171841 58 0 0.0 0.0 0.00 0.00 0.00 82 1014.2
20260503171241 58 0 0.0 0.0 0.00 0.00 0.00 82 1014.2
20260503170641 58 0 0.0 0.0 0.00 0.00 0.00 82 1014.2
20260503150641 59 0 0.0 0.0 0.00 0.00 0.00 80 1015.3